Showing default

HULIANWANG DIGUI-09, 62331

Orbit data source: Space-Track

HULIANWANG DIGUI-09, 62331 is a payload satellite owned by Zhongguo Xingwang (CN) in LEO that was launched on Mon, 16 Dec 2024 UTC via a CHANG ZHENG 5B/YZ-2 launch vehicle from the Wenchang Satellite Launch Center (WSC). Payload-class satellites include a variety of spacecraft equipped with specific instruments for various scientific and technological missions. These include communications satellites like Starlink; space stations such as the ISS; scientific satellites like the Hubble; Earth observation satellites from companies like Planet Labs, Umbra, and HawkEye 360; GPS; miniature CubeSats for education and research; and military/defense satellites.

Loading next visibility...
Identifier
62331, 2024-240J
Orbit
LEO
Country
Flag of CNCN / PRC
Related business
Manufacturer
CAST?
Mission
Operational Civil Communications
Bus & Motor
XINGWANG CL, Unknown motor
Mass
~800 kg wet, ~800 kg dry
Launch date (UTC)
2024-12-16 (1 year ago)
Launch vehicle
CHANG ZHENG 5B/YZ-2
Launch site
Wenchang Satellite Launch Center (WSC)
Object type
Payload
Rocket body
Debris
Shape & HBR
Box + 2 Pan, 5.0 m
Radar Cross Section
5.935 m², Large (>1 m²)

Expand to show TLE details & history
Last TLE update: 9 hours ago

TLE from 9 hours ago
0 HULIANWANG DIGUI-09
1 62331U 24240J   26126.24264413  .00000024  00000-0  22511-4 0  9991
2 62331  86.5026 357.4153 0001678  73.5479 286.5839 13.24406381 67083
Epoch: 2026-05-06T05:49Z
TLE epoch observation values (Epoch: 2026-05-06T05:49:24.452Z)
Latitude
-0.00008°
Longitude
45.95747°
Altitude
1,170.469 km
Speed
7.268 km/s
True Right ascension
23h 49m 39s
True Declination
0° 00' 00"
Sunlit
Object was in daylight at epoch
Visualization orbit readout
Latitude
Unknown
Longitude
Unknown
Altitude
Unknown
Speed
Unknown
Apparent Right ascension
Unknown
Apparent Declination
Unknown
Sunlit
N/A
Visualization observer readout
Local Sidereal Time
22:49:23
Azimuth
Unknown
Elevation
Unknown
Doppler factor
Unknown
Orbital elements
Apogee altitude
1,166.322 km
Perigee altitude
1,163.79 km
Semi-major axis
7,543.193 km
Eccentricity
0.00017
Inclination
86.5026°
RAAN
357.4153°
Arg. of periapsis
73.5479°
True anomaly
286.56547°
Mean anomaly
286.5839°
Eccentric anomaly
286.57469°
Mean motion
3.31292 °/min
Orbital period
108.67 mins
BSTAR
0.000022511
Loading maneuver chart data...
Computing Atmospheric mass density...
Loading historical data...
Loading historical data...
Loading historical data...
Loading historical data...
Loading historical data...
Loading historical data...
Loading historical data...

Documentation

Showing up to 5 results
|